CSZ648 RJFK-RJTT

Flight info

Callsign CSZ648
Flight time 1h 34m
Altitude 35000
Route MIDAI M750 MADOG Y753 JAKAL A1 KEC V52 AYANO Y12 KOHWA Y33 SHOOT Y71 XAC
Aircraft A21N/M-SDE2E3FGHILRWXY/LB2

Departure

Time 2026-05-05 07:53
Airport Kagoshima Airport (RJFK)

Arrival

Time 2026-05-05 09:28
Airport Tokyo Haneda International Airport (RJTT)
Time Latitude Longitude Altitude Speed Heading
2026-05-05 07:30 31.80171 130.71660 901 ft 0 kts 240°
2026-05-05 07:44 31.80175 130.71669 901 ft 2 kts 240°
2026-05-05 07:45 31.80183 130.71684 901 ft 2 kts 240°
2026-05-05 07:45 31.80190 130.71699 901 ft 2 kts 240°
2026-05-05 07:45 31.80197 130.71715 901 ft 2 kts 240°
2026-05-05 07:45 31.80205 130.71730 901 ft 2 kts 240°
2026-05-05 07:46 31.80212 130.71745 901 ft 2 kts 240°
2026-05-05 07:46 31.80220 130.71761 901 ft 2 kts 240°
2026-05-05 07:46 31.80226 130.71777 901 ft 2 kts 271°
2026-05-05 07:46 31.80222 130.71794 901 ft 2 kts 309°
2026-05-05 07:47 31.80215 130.71802 901 ft 1 kts 332°
2026-05-05 07:47 31.80210 130.71805 901 ft 0 kts 331°
2026-05-05 07:49 31.80211 130.71803 901 ft 1 kts 331°
2026-05-05 07:49 31.80256 130.71773 901 ft 13 kts 330°
2026-05-05 07:49 31.80370 130.71695 901 ft 24 kts 329°
2026-05-05 07:50 31.80537 130.71582 901 ft 29 kts 329°
2026-05-05 07:50 31.80710 130.71463 901 ft 28 kts 330°
2026-05-05 07:50 31.80886 130.71346 901 ft 30 kts 330°
2026-05-05 07:50 31.81065 130.71222 901 ft 29 kts 327°
2026-05-05 07:51 31.81234 130.71111 901 ft 27 kts 330°
2026-05-05 07:51 31.81388 130.71008 901 ft 14 kts 336°
2026-05-05 07:51 31.81475 130.71051 901 ft 15 kts 59°
2026-05-05 07:51 31.81479 130.71152 901 ft 6 kts 105°
2026-05-05 07:52 31.81446 130.71190 901 ft 5 kts 149°
2026-05-05 07:52 31.81365 130.71245 901 ft 38 kts 150°
2026-05-05 07:52 31.80926 130.71541 901 ft 105 kts 150°
2026-05-05 07:52 31.80111 130.72093 901 ft 161 kts 150°
2026-05-05 07:53 31.79058 130.72816 1223 ft 181 kts 149°
2026-05-05 07:53 31.77953 130.73457 1913 ft 179 kts 161°
2026-05-05 07:53 31.76780 130.73904 2647 ft 177 kts 165°
2026-05-05 07:53 31.75576 130.74313 3044 ft 187 kts 165°
2026-05-05 07:54 31.74265 130.74760 3351 ft 203 kts 165°
2026-05-05 07:54 31.72850 130.75250 3653 ft 221 kts 164°
2026-05-05 07:54 31.71329 130.75778 3931 ft 240 kts 164°
2026-05-05 07:54 31.69673 130.76361 4301 ft 256 kts 164°
2026-05-05 07:55 31.67942 130.76976 4903 ft 263 kts 165°
2026-05-05 07:55 31.66181 130.77600 5591 ft 266 kts 165°
2026-05-05 07:55 31.64420 130.78247 6278 ft 270 kts 160°
2026-05-05 07:55 31.62860 130.79512 6931 ft 279 kts 132°
2026-05-05 07:56 31.61967 130.81525 7604 ft 287 kts 104°
2026-05-05 07:56 31.61788 130.83864 8291 ft 292 kts 93°
2026-05-05 07:56 31.61766 130.86259 8953 ft 296 kts 92°
2026-05-05 07:56 31.61749 130.88683 9603 ft 299 kts 92°
2026-05-05 07:57 31.61711 130.91142 10211 ft 304 kts 92°
2026-05-05 07:57 31.61660 130.93689 10566 ft 318 kts 92°
2026-05-05 07:57 31.61599 130.96361 10850 ft 334 kts 92°
2026-05-05 07:57 31.61532 130.99147 11125 ft 350 kts 92°
2026-05-05 07:58 31.61460 131.02057 11521 ft 360 kts 92°
2026-05-05 07:58 31.61387 131.05008 12098 ft 364 kts 92°
2026-05-05 07:58 31.61315 131.07989 12695 ft 367 kts 92°
2026-05-05 07:58 31.61241 131.11020 13282 ft 370 kts 92°
2026-05-05 07:59 31.61166 131.14059 13853 ft 373 kts 92°
2026-05-05 07:59 31.61090 131.17081 14405 ft 376 kts 92°
2026-05-05 07:59 31.61011 131.20195 14956 ft 379 kts 92°
2026-05-05 07:59 31.60931 131.23308 15489 ft 382 kts 92°
2026-05-05 08:00 31.60849 131.26422 16007 ft 385 kts 92°
2026-05-05 08:00 31.60766 131.29581 16517 ft 388 kts 92°
2026-05-05 08:00 31.60682 131.32744 17010 ft 391 kts 91°
2026-05-05 08:00 31.60828 131.35951 17474 ft 394 kts 79°
2026-05-05 08:01 31.61597 131.39018 17938 ft 395 kts 64°
2026-05-05 08:01 31.62886 131.41849 18415 ft 396 kts 57°
2026-05-05 08:01 31.64338 131.44644 18866 ft 399 kts 56°
2026-05-05 08:01 31.65789 131.47392 19294 ft 402 kts 56°
2026-05-05 08:02 31.67262 131.50203 19729 ft 404 kts 56°
2026-05-05 08:02 31.68719 131.53011 20153 ft 407 kts 57°
2026-05-05 08:02 31.70183 131.55853 20569 ft 409 kts 57°
2026-05-05 08:02 31.71659 131.58733 20980 ft 412 kts 57°
2026-05-05 08:03 31.73145 131.61639 21381 ft 414 kts 57°
2026-05-05 08:03 31.74635 131.64560 21770 ft 417 kts 57°
2026-05-05 08:03 31.76125 131.67494 22144 ft 419 kts 57°
2026-05-05 08:03 31.77612 131.70430 22507 ft 421 kts 57°
2026-05-05 08:04 31.79123 131.73415 22867 ft 424 kts 57°
2026-05-05 08:04 31.80629 131.76387 23218 ft 426 kts 57°
2026-05-05 08:04 31.82137 131.79361 23560 ft 428 kts 57°
2026-05-05 08:04 31.83673 131.82393 23896 ft 430 kts 57°
2026-05-05 08:05 31.85192 131.85391 24221 ft 432 kts 57°
2026-05-05 08:05 31.86737 131.88443 24547 ft 434 kts 57°
2026-05-05 08:05 31.88296 131.91525 24869 ft 436 kts 57°
2026-05-05 08:05 31.89856 131.94609 25176 ft 438 kts 57°
2026-05-05 08:06 31.91421 131.97708 25477 ft 440 kts 57°
2026-05-05 08:06 31.92989 132.00815 25775 ft 442 kts 57°
2026-05-05 08:06 31.94559 132.03926 26063 ft 444 kts 57°
2026-05-05 08:06 31.96138 132.07060 26344 ft 446 kts 57°
2026-05-05 08:07 31.97725 132.10211 26621 ft 448 kts 57°
2026-05-05 08:07 31.99317 132.13376 26893 ft 449 kts 57°
2026-05-05 08:07 32.00899 132.16521 27156 ft 451 kts 57°
2026-05-05 08:07 32.02500 132.19708 27414 ft 453 kts 57°
2026-05-05 08:08 32.04111 132.22917 27671 ft 454 kts 57°
2026-05-05 08:08 32.05718 132.26117 27923 ft 456 kts 57°
2026-05-05 08:08 32.07343 132.29358 28175 ft 458 kts 57°
2026-05-05 08:08 32.08947 132.32559 28419 ft 460 kts 57°
2026-05-05 08:09 32.10598 132.35855 28668 ft 461 kts 57°
2026-05-05 08:09 32.12247 132.39130 28910 ft 463 kts 57°
2026-05-05 08:09 32.13907 132.42354 29145 ft 464 kts 56°
2026-05-05 08:09 32.15621 132.45595 29382 ft 466 kts 55°
2026-05-05 08:10 32.17339 132.48828 29609 ft 467 kts 55°
2026-05-05 08:10 32.19066 132.52083 29841 ft 469 kts 55°
2026-05-05 08:10 32.20805 132.55371 30074 ft 470 kts 55°
2026-05-05 08:10 32.22532 132.58646 30316 ft 471 kts 55°
2026-05-05 08:11 32.24263 132.61935 30626 ft 470 kts 55°
2026-05-05 08:11 32.25980 132.65204 30954 ft 469 kts 56°
2026-05-05 08:11 32.27692 132.68475 31260 ft 468 kts 56°
2026-05-05 08:11 32.29404 132.71756 31544 ft 468 kts 56°
2026-05-05 08:12 32.31115 132.75035 31825 ft 467 kts 56°
2026-05-05 08:12 32.32808 132.78279 32107 ft 466 kts 56°
2026-05-05 08:12 32.34528 132.81572 32390 ft 466 kts 56°
2026-05-05 08:12 32.36228 132.84827 32661 ft 465 kts 56°
2026-05-05 08:13 32.37951 132.88127 32931 ft 465 kts 56°
2026-05-05 08:13 32.39655 132.91394 33194 ft 464 kts 56°
2026-05-05 08:13 32.41356 132.94658 33446 ft 464 kts 56°
2026-05-05 08:13 32.43044 132.97900 33661 ft 465 kts 56°
2026-05-05 08:14 32.44762 133.01202 33858 ft 466 kts 56°
2026-05-05 08:14 32.46472 133.04489 34048 ft 467 kts 56°
2026-05-05 08:14 32.48170 133.07758 34245 ft 467 kts 56°
2026-05-05 08:14 32.49872 133.11037 34441 ft 468 kts 56°
2026-05-05 08:15 32.51573 133.14316 34627 ft 469 kts 56°
2026-05-05 08:15 32.53296 133.17641 34813 ft 469 kts 56°
2026-05-05 08:15 32.54997 133.20927 34996 ft 470 kts 56°
2026-05-05 08:15 32.56732 133.24281 35100 ft 471 kts 56°
2026-05-05 08:16 32.60165 133.30925 35112 ft 472 kts 56°
2026-05-05 08:16 32.63606 133.37598 35116 ft 472 kts 56°
2026-05-05 08:17 32.66983 133.44217 35116 ft 472 kts 57°
2026-05-05 08:17 32.70331 133.50941 35116 ft 472 kts 57°
2026-05-05 08:18 32.73669 133.57649 35116 ft 472 kts 57°
2026-05-05 08:18 32.77031 133.64398 35116 ft 472 kts 56°
2026-05-05 08:19 32.80375 133.71143 35116 ft 472 kts 57°
2026-05-05 08:19 32.83705 133.77876 35117 ft 472 kts 57°
2026-05-05 08:20 32.87044 133.84637 35117 ft 472 kts 57°
2026-05-05 08:20 32.90385 133.91397 35117 ft 472 kts 57°
2026-05-05 08:21 32.93733 133.98178 35117 ft 472 kts 57°
2026-05-05 08:21 32.97078 134.04961 35116 ft 472 kts 57°
2026-05-05 08:22 33.00425 134.11763 35115 ft 475 kts 57°
2026-05-05 08:22 33.03758 134.18642 35114 ft 480 kts 58°
2026-05-05 08:23 33.06578 134.25911 35113 ft 487 kts 65°
2026-05-05 08:23 33.08701 134.33614 35114 ft 492 kts 71°
2026-05-05 08:24 33.10620 134.41492 35115 ft 494 kts 70°
2026-05-05 08:24 33.12568 134.49358 35116 ft 497 kts 70°
2026-05-05 08:25 33.14524 134.57275 35117 ft 498 kts 70°
2026-05-05 08:25 33.16469 134.65202 35116 ft 498 kts 71°
2026-05-05 08:26 33.18415 134.73201 35115 ft 497 kts 71°
2026-05-05 08:26 33.20353 134.81183 35116 ft 498 kts 71°
2026-05-05 08:27 33.22304 134.89210 35116 ft 498 kts 71°
2026-05-05 08:27 33.24238 134.97192 35116 ft 497 kts 71°
2026-05-05 08:28 33.26230 135.05139 35116 ft 496 kts 70°
2026-05-05 08:28 33.28312 135.13017 35129 ft 495 kts 69°
2026-05-05 08:29 33.30390 135.20923 35143 ft 495 kts 69°
2026-05-05 08:30 33.33450 135.32675 35152 ft 495 kts 69°
2026-05-05 08:30 33.35492 135.40552 35152 ft 495 kts 70°
2026-05-05 08:31 33.37484 135.48473 35152 ft 496 kts 71°
2026-05-05 08:31 33.39339 135.56398 35152 ft 496 kts 71°
2026-05-05 08:32 33.41195 135.64327 35153 ft 495 kts 71°
2026-05-05 08:32 33.43261 135.72235 35149 ft 492 kts 64°
2026-05-05 08:33 33.46506 135.79335 35152 ft 485 kts 50°
2026-05-05 08:33 33.50972 135.85269 35152 ft 475 kts 36°
2026-05-05 08:34 33.56137 135.90114 35153 ft 472 kts 31°
2026-05-05 08:34 33.61409 135.94861 35151 ft 471 kts 31°
2026-05-05 08:35 33.66602 135.99597 35151 ft 471 kts 31°
2026-05-05 08:35 33.71834 136.04407 35150 ft 471 kts 32°
2026-05-05 08:36 33.77001 136.09170 35150 ft 472 kts 32°
2026-05-05 08:36 33.82230 136.14002 35151 ft 472 kts 32°
2026-05-05 08:37 33.87439 136.18823 35148 ft 472 kts 32°
2026-05-05 08:37 33.92622 136.23625 35138 ft 472 kts 32°
2026-05-05 08:38 33.97813 136.28439 35124 ft 472 kts 32°
2026-05-05 08:38 34.02991 136.33250 35110 ft 472 kts 32°
2026-05-05 08:39 34.08195 136.38095 35106 ft 472 kts 32°
2026-05-05 08:39 34.13381 136.42928 35117 ft 472 kts 32°
2026-05-05 08:40 34.18563 136.47761 35137 ft 472 kts 32°
2026-05-05 08:40 34.23758 136.52624 35158 ft 472 kts 32°
2026-05-05 08:41 34.28943 136.57491 35170 ft 472 kts 32°
2026-05-05 08:41 34.34150 136.62326 35176 ft 471 kts 31°
2026-05-05 08:42 34.39360 136.67104 35177 ft 472 kts 32°
2026-05-05 08:42 34.44587 136.71935 35178 ft 473 kts 32°
2026-05-05 08:43 34.49815 136.76761 35180 ft 472 kts 32°
2026-05-05 08:43 34.55022 136.81563 35180 ft 471 kts 31°
2026-05-05 08:44 34.60215 136.86357 35179 ft 471 kts 31°
2026-05-05 08:44 34.65190 136.91547 35177 ft 478 kts 43°
2026-05-05 08:45 34.68854 136.98412 35178 ft 490 kts 63°
2026-05-05 08:45 34.70599 137.06430 35178 ft 498 kts 83°
2026-05-05 08:46 34.70778 137.14851 35181 ft 499 kts 88°
2026-05-05 08:46 34.70783 137.23282 35178 ft 500 kts 88°
2026-05-05 08:47 34.70835 137.31761 35179 ft 499 kts 87°
2026-05-05 08:47 34.70915 137.40157 35183 ft 499 kts 87°
2026-05-05 08:48 34.70997 137.48634 35190 ft 499 kts 87°
2026-05-05 08:48 34.71075 137.57097 35198 ft 499 kts 87°
2026-05-05 08:49 34.71146 137.65517 35201 ft 499 kts 88°
2026-05-05 08:49 34.71212 137.74007 35204 ft 500 kts 88°
2026-05-05 08:50 34.71271 137.82460 35206 ft 500 kts 88°
2026-05-05 08:50 34.71327 137.90865 35205 ft 499 kts 88°
2026-05-05 08:51 34.71377 137.99333 35207 ft 499 kts 88°
2026-05-05 08:51 34.71414 138.07777 35206 ft 499 kts 88°
2026-05-05 08:52 34.71440 138.16226 35205 ft 499 kts 88°
2026-05-05 08:52 34.71465 138.24654 35206 ft 499 kts 88°
2026-05-05 08:53 34.71487 138.33035 35205 ft 499 kts 88°
2026-05-05 08:53 34.71504 138.41481 35205 ft 499 kts 88°
2026-05-05 08:54 34.71516 138.49918 35206 ft 499 kts 88°
2026-05-05 08:54 34.71523 138.58348 35205 ft 499 kts 88°
2026-05-05 08:55 34.71526 138.66774 35203 ft 499 kts 88°
2026-05-05 08:55 34.71523 138.75206 35205 ft 499 kts 88°
2026-05-05 08:56 34.71507 138.83652 35204 ft 499 kts 89°
2026-05-05 08:56 34.71477 138.92101 35196 ft 499 kts 89°
2026-05-05 08:57 34.71440 139.00507 35188 ft 499 kts 89°
2026-05-05 08:57 34.71390 139.08943 35183 ft 498 kts 88°
2026-05-05 08:58 34.71342 139.17387 35181 ft 498 kts 88°
2026-05-05 08:58 34.71294 139.25792 35181 ft 497 kts 88°
2026-05-05 08:59 34.71240 139.34189 35176 ft 496 kts 88°
2026-05-05 08:59 34.71261 139.38353 34853 ft 495 kts 83°
2026-05-05 08:59 34.71850 139.42462 33917 ft 492 kts 68°
2026-05-05 08:59 34.73189 139.46245 32765 ft 492 kts 57°
2026-05-05 09:00 34.74858 139.49840 31573 ft 496 kts 56°
2026-05-05 09:00 34.76627 139.53487 30281 ft 500 kts 56°
2026-05-05 09:00 34.78360 139.57106 28963 ft 503 kts 57°
2026-05-05 09:00 34.80058 139.60748 28002 ft 493 kts 58°
2026-05-05 09:01 34.81712 139.64365 26917 ft 485 kts 59°
2026-05-05 09:01 34.83409 139.67819 25854 ft 474 kts 51°
2026-05-05 09:01 34.85756 139.70555 24782 ft 459 kts 30°
2026-05-05 09:01 34.88568 139.72101 24117 ft 434 kts 13°
2026-05-05 09:02 34.91413 139.73038 23509 ft 417 kts 10°
2026-05-05 09:02 34.94161 139.73924 22734 ft 409 kts 11°
2026-05-05 09:02 34.96843 139.74907 21915 ft 403 kts 15°
2026-05-05 09:02 34.99327 139.76495 21066 ft 404 kts 34°
2026-05-05 09:03 35.01392 139.78770 20351 ft 397 kts 41°
2026-05-05 09:03 35.03316 139.81123 19608 ft 389 kts 42°
2026-05-05 09:03 35.05179 139.83415 18894 ft 380 kts 41°
2026-05-05 09:03 35.07029 139.85655 18184 ft 372 kts 41°
2026-05-05 09:04 35.08861 139.87852 17467 ft 364 kts 41°
2026-05-05 09:04 35.10720 139.89867 16766 ft 354 kts 33°
2026-05-05 09:04 35.12793 139.91472 16072 ft 344 kts 26°
2026-05-05 09:04 35.14860 139.92841 15402 ft 337 kts 25°
2026-05-05 09:05 35.16901 139.94157 14736 ft 331 kts 25°
2026-05-05 09:05 35.18921 139.95467 14242 ft 327 kts 25°
2026-05-05 09:05 35.20925 139.96779 13919 ft 322 kts 25°
2026-05-05 09:05 35.22859 139.98055 13606 ft 318 kts 26°
2026-05-05 09:06 35.24794 139.99336 13291 ft 313 kts 26°
2026-05-05 09:06 35.26702 140.00604 12980 ft 308 kts 26°
2026-05-05 09:06 35.28569 140.01845 12675 ft 304 kts 26°
2026-05-05 09:06 35.30413 140.03072 12374 ft 299 kts 26°
2026-05-05 09:07 35.32237 140.04286 12074 ft 295 kts 26°
2026-05-05 09:07 35.34003 140.05464 11783 ft 290 kts 26°
2026-05-05 09:07 35.35772 140.06644 11492 ft 286 kts 26°
2026-05-05 09:07 35.37502 140.07800 11206 ft 282 kts 26°
2026-05-05 09:08 35.39209 140.08940 10923 ft 278 kts 26°
2026-05-05 09:08 35.40910 140.10077 10610 ft 275 kts 26°
2026-05-05 09:08 35.42583 140.11195 10256 ft 274 kts 27°
2026-05-05 09:08 35.44247 140.12305 9942 ft 277 kts 26°
2026-05-05 09:09 35.45972 140.13489 9623 ft 293 kts 28°
2026-05-05 09:09 35.47769 140.14760 9345 ft 293 kts 30°
2026-05-05 09:09 35.49502 140.16052 9223 ft 295 kts 30°
2026-05-05 09:09 35.51257 140.17369 9098 ft 294 kts 30°
2026-05-05 09:10 35.52990 140.18668 8973 ft 294 kts 30°
2026-05-05 09:10 35.54759 140.19984 8846 ft 294 kts 30°
2026-05-05 09:10 35.56491 140.21272 8722 ft 293 kts 30°
2026-05-05 09:10 35.58255 140.22522 8590 ft 292 kts 22°
2026-05-05 09:11 35.60197 140.23109 8456 ft 289 kts 359°
2026-05-05 09:11 35.62169 140.22761 8332 ft 285 kts 340°
2026-05-05 09:11 35.64035 140.21959 8209 ft 284 kts 337°
2026-05-05 09:11 35.65882 140.21098 8084 ft 284 kts 337°
2026-05-05 09:12 35.67721 140.20254 7959 ft 283 kts 337°
2026-05-05 09:12 35.69521 140.19290 7816 ft 280 kts 322°
2026-05-05 09:12 35.70822 140.17543 7681 ft 274 kts 294°
2026-05-05 09:12 35.71513 140.15369 7566 ft 272 kts 286°
2026-05-05 09:13 35.72106 140.13147 7441 ft 272 kts 285°
2026-05-05 09:13 35.72696 140.10947 7317 ft 272 kts 286°
2026-05-05 09:13 35.73299 140.08743 7188 ft 271 kts 286°
2026-05-05 09:13 35.73913 140.06538 7043 ft 271 kts 286°
2026-05-05 09:14 35.74529 140.04346 6885 ft 271 kts 286°
2026-05-05 09:14 35.75145 140.02159 6756 ft 269 kts 286°
2026-05-05 09:14 35.75603 139.99927 6788 ft 267 kts 269°
2026-05-05 09:14 35.75254 139.97702 6789 ft 263 kts 242°
2026-05-05 09:15 35.74101 139.95991 6785 ft 262 kts 214°
2026-05-05 09:15 35.72405 139.95167 6783 ft 265 kts 187°
2026-05-05 09:15 35.70586 139.95412 6666 ft 269 kts 163°
2026-05-05 09:15 35.68859 139.96310 6420 ft 269 kts 156°
2026-05-05 09:16 35.67236 139.97449 6156 ft 270 kts 142°
2026-05-05 09:16 35.66114 139.99271 5906 ft 272 kts 115°
2026-05-05 09:16 35.65785 140.01552 5659 ft 270 kts 90°
2026-05-05 09:16 35.65935 140.03818 5506 ft 261 kts 86°
2026-05-05 09:17 35.66129 140.05980 5491 ft 250 kts 85°
2026-05-05 09:17 35.66323 140.08098 5489 ft 250 kts 86°
2026-05-05 09:17 35.66455 140.10252 5485 ft 250 kts 91°
2026-05-05 09:17 35.66460 140.12373 5489 ft 249 kts 93°
2026-05-05 09:18 35.66432 140.14520 5485 ft 249 kts 94°
2026-05-05 09:18 35.66268 140.16628 5470 ft 245 kts 111°
2026-05-05 09:18 35.65318 140.18253 5454 ft 228 kts 152°
2026-05-05 09:18 35.63902 140.19009 5499 ft 221 kts 163°
2026-05-05 09:19 35.62420 140.19354 5474 ft 218 kts 184°
2026-05-05 09:19 35.60931 140.19066 5478 ft 217 kts 204°
2026-05-05 09:19 35.59806 140.17938 5550 ft 209 kts 236°
2026-05-05 09:19 35.59455 140.16281 5539 ft 195 kts 272°
2026-05-05 09:20 35.59755 140.14712 5517 ft 179 kts 284°
2026-05-05 09:20 35.60110 140.13341 5466 ft 165 kts 281°
2026-05-05 09:20 35.60333 140.11949 5428 ft 163 kts 272°
2026-05-05 09:20 35.60435 140.10568 5354 ft 162 kts 270°
2026-05-05 09:21 35.60492 140.09177 5248 ft 162 kts 268°
2026-05-05 09:21 35.60521 140.07788 5020 ft 164 kts 266°
2026-05-05 09:21 35.60531 140.06422 4819 ft 160 kts 266°
2026-05-05 09:21 35.60529 140.05040 4701 ft 161 kts 265°
2026-05-05 09:22 35.60520 140.03661 4514 ft 161 kts 265°
2026-05-05 09:22 35.60508 140.02286 4314 ft 160 kts 264°
2026-05-05 09:22 35.60496 140.00915 4109 ft 159 kts 265°
2026-05-05 09:22 35.60485 139.99571 3886 ft 157 kts 265°
2026-05-05 09:23 35.60474 139.98212 3642 ft 157 kts 265°
2026-05-05 09:23 35.60465 139.96875 3392 ft 156 kts 265°
2026-05-05 09:23 35.60457 139.95532 3141 ft 156 kts 265°
2026-05-05 09:23 35.60448 139.94202 2890 ft 155 kts 265°
2026-05-05 09:24 35.60441 139.92888 2641 ft 154 kts 265°
2026-05-05 09:24 35.60434 139.91554 2388 ft 154 kts 265°
2026-05-05 09:24 35.60427 139.90251 2150 ft 153 kts 265°
2026-05-05 09:24 35.60419 139.88934 1923 ft 153 kts 265°
2026-05-05 09:25 35.60412 139.87637 1721 ft 149 kts 264°
2026-05-05 09:25 35.60406 139.86360 1504 ft 148 kts 264°
2026-05-05 09:25 35.60400 139.85103 1287 ft 148 kts 264°
2026-05-05 09:25 35.60397 139.83833 1062 ft 145 kts 265°
2026-05-05 09:26 35.60355 139.82622 899 ft 141 kts 258°
2026-05-05 09:26 35.60139 139.81438 798 ft 138 kts 243°
2026-05-05 09:26 35.59638 139.80429 684 ft 138 kts 226°
2026-05-05 09:26 35.58938 139.79633 600 ft 140 kts 214°
2026-05-05 09:27 35.58142 139.78917 440 ft 140 kts 213°
2026-05-05 09:27 35.57347 139.78238 238 ft 138 kts 213°
2026-05-05 09:27 35.56574 139.77570 57 ft 131 kts 213°
2026-05-05 09:27 35.55911 139.77004 44 ft 93 kts 218°
2026-05-05 09:28 35.55518 139.76672 44 ft 43 kts 204°
2026-05-05 09:28 35.55349 139.76622 44 ft 9 kts 184°
2026-05-05 09:28 35.55283 139.76665 44 ft 13 kts 118°
2026-05-05 09:28 35.55345 139.76778 44 ft 21 kts 35°
2026-05-05 09:29 35.55490 139.76901 44 ft 30 kts 35°
2026-05-05 09:29 35.55667 139.77055 44 ft 30 kts 35°
2026-05-05 09:29 35.55839 139.77202 44 ft 29 kts 35°
2026-05-05 09:29 35.56015 139.77354 44 ft 32 kts 36°
2026-05-05 09:30 35.56203 139.77516 44 ft 31 kts 34°
2026-05-05 09:30 35.56356 139.77692 44 ft 29 kts 59°
2026-05-05 09:30 35.56462 139.77916 44 ft 30 kts 59°
2026-05-05 09:30 35.56519 139.78064 44 ft 10 kts 108°
2026-05-05 09:31 35.56457 139.78128 44 ft 13 kts 149°
2026-05-05 09:31 35.56363 139.78197 44 ft 17 kts 149°
2026-05-05 09:31 35.56249 139.78276 44 ft 20 kts 151°
2026-05-05 09:31 35.56118 139.78368 44 ft 22 kts 150°
2026-05-05 09:32 35.55976 139.78470 44 ft 24 kts 149°
2026-05-05 09:32 35.55821 139.78580 44 ft 25 kts 150°
2026-05-05 09:32 35.55686 139.78674 44 ft 14 kts 149°
2026-05-05 09:32 35.55639 139.78751 44 ft 7 kts 130°
2026-05-05 09:33 35.55597 139.78787 44 ft 7 kts 150°
2026-05-05 09:33 35.55573 139.78804 44 ft 0 kts 150°